Year,Month,Day,Hour,Minute,Value (Times are PST for temperature in C)
2014,11,22,00,00,8.30
2014,11,22,00,01,8.30
2014,11,22,00,02,8.30
2014,11,22,00,03,8.30
2014,11,22,00,04,8.30
2014,11,22,00,05,8.30
2014,11,22,00,06,8.30
2014,11,22,00,07,8.30
2014,11,22,00,08,8.40
2014,11,22,00,09,8.40
2014,11,22,00,10,8.40
2014,11,22,00,11,8.40
2014,11,22,00,12,8.40
2014,11,22,00,13,8.40
2014,11,22,00,14,8.30
2014,11,22,00,15,8.30
2014,11,22,00,16,8.30
2014,11,22,00,17,8.30
2014,11,22,00,18,8.30
2014,11,22,00,19,8.30
2014,11,22,00,20,8.30
2014,11,22,00,21,8.30
2014,11,22,00,22,8.30
2014,11,22,00,23,8.30
2014,11,22,00,24,8.30
2014,11,22,00,25,8.30
2014,11,22,00,26,8.30
2014,11,22,00,27,8.30
2014,11,22,00,28,8.30
2014,11,22,00,29,8.30
2014,11,22,00,30,8.20
2014,11,22,00,31,8.20
2014,11,22,00,32,8.20
2014,11,22,00,33,8.20
2014,11,22,00,34,8.10
2014,11,22,00,35,8.10
2014,11,22,00,36,8.10
2014,11,22,00,37,8.20
2014,11,22,00,38,8.20
2014,11,22,00,39,8.20
2014,11,22,00,40,8.20
2014,11,22,00,41,8.30
2014,11,22,00,42,8.30
2014,11,22,00,43,8.30
2014,11,22,00,44,8.30
2014,11,22,00,45,8.30
2014,11,22,00,46,8.30
2014,11,22,00,47,8.40
2014,11,22,00,48,8.40
2014,11,22,00,49,8.40
2014,11,22,00,50,8.40
2014,11,22,00,51,8.30
2014,11,22,00,52,8.30
2014,11,22,00,53,8.30
2014,11,22,00,54,8.20
2014,11,22,00,55,8.20
2014,11,22,00,56,8.10
2014,11,22,00,57,8.10
2014,11,22,00,58,8.10
2014,11,22,00,59,8.10
2014,11,22,01,00,8.10
2014,11,22,01,01,8.00
2014,11,22,01,02,8.00
2014,11,22,01,03,8.00
2014,11,22,01,04,7.90
2014,11,22,01,05,7.90
2014,11,22,01,06,7.90
2014,11,22,01,07,7.90
2014,11,22,01,08,7.90
2014,11,22,01,09,7.80
2014,11,22,01,10,7.80
2014,11,22,01,11,7.80
2014,11,22,01,12,7.90
2014,11,22,01,13,7.90
2014,11,22,01,14,7.80
2014,11,22,01,15,7.80
2014,11,22,01,16,7.80
2014,11,22,01,17,7.80
2014,11,22,01,18,7.80
2014,11,22,01,19,7.80
2014,11,22,01,20,7.80
2014,11,22,01,21,7.80
2014,11,22,01,22,7.80
2014,11,22,01,23,7.80
2014,11,22,01,24,7.80
2014,11,22,01,25,7.80
2014,11,22,01,26,7.70
2014,11,22,01,27,7.70
2014,11,22,01,28,7.70
2014,11,22,01,29,7.70
2014,11,22,01,30,7.70
2014,11,22,01,31,7.70
2014,11,22,01,32,7.70
2014,11,22,01,33,7.70
2014,11,22,01,34,7.70
2014,11,22,01,35,7.70
2014,11,22,01,36,7.70
2014,11,22,01,37,7.70
2014,11,22,01,38,7.70
2014,11,22,01,39,7.80
2014,11,22,01,40,7.80
2014,11,22,01,41,7.80
2014,11,22,01,42,7.80
2014,11,22,01,43,7.90
2014,11,22,01,44,7.90
2014,11,22,01,45,7.90
2014,11,22,01,46,7.90
2014,11,22,01,47,7.90
2014,11,22,01,48,7.90
2014,11,22,01,49,7.90
2014,11,22,01,50,7.90
2014,11,22,01,51,7.90
2014,11,22,01,52,7.90
2014,11,22,01,53,7.90
2014,11,22,01,54,7.90
2014,11,22,01,55,7.90
2014,11,22,01,56,7.90
2014,11,22,01,57,7.90
2014,11,22,01,58,7.90
2014,11,22,01,59,7.90
2014,11,22,02,00,7.80
2014,11,22,02,01,7.90
2014,11,22,02,02,7.90
2014,11,22,02,03,7.90
2014,11,22,02,04,7.90
2014,11,22,02,05,8.00
2014,11,22,02,06,8.00
2014,11,22,02,07,8.00
2014,11,22,02,08,7.90
2014,11,22,02,09,7.90
2014,11,22,02,10,7.90
2014,11,22,02,11,7.90
2014,11,22,02,12,7.90
2014,11,22,02,13,7.90
2014,11,22,02,14,7.90
2014,11,22,02,15,7.90
2014,11,22,02,16,7.90
2014,11,22,02,17,7.90
2014,11,22,02,18,7.80
2014,11,22,02,19,7.80
2014,11,22,02,20,7.80
2014,11,22,02,21,7.80
2014,11,22,02,22,7.80
2014,11,22,02,23,7.80
2014,11,22,02,24,7.80
2014,11,22,02,25,7.80
2014,11,22,02,26,7.80
2014,11,22,02,27,7.80
2014,11,22,02,28,7.80
2014,11,22,02,29,7.80
2014,11,22,02,30,7.70
2014,11,22,02,31,7.70
2014,11,22,02,32,7.70
2014,11,22,02,33,7.70
2014,11,22,02,34,7.70
2014,11,22,02,35,7.70
2014,11,22,02,36,7.70
2014,11,22,02,37,7.70
2014,11,22,02,38,7.70
2014,11,22,02,39,7.70
2014,11,22,02,40,7.70
2014,11,22,02,41,7.70
2014,11,22,02,42,7.70
2014,11,22,02,43,7.70
2014,11,22,02,44,7.80
2014,11,22,02,45,7.80
2014,11,22,02,46,7.80
2014,11,22,02,47,7.80
2014,11,22,02,48,7.80
2014,11,22,02,49,7.80
2014,11,22,02,50,7.80
2014,11,22,02,51,7.80
2014,11,22,02,52,7.80
2014,11,22,02,53,7.80
2014,11,22,02,54,7.90
2014,11,22,02,55,7.90
2014,11,22,02,56,7.90
2014,11,22,02,57,7.90
2014,11,22,02,58,7.90
2014,11,22,02,59,7.90
2014,11,22,03,00,7.90
2014,11,22,03,01,7.90
2014,11,22,03,02,7.90
2014,11,22,03,03,7.90
2014,11,22,03,04,7.90
2014,11,22,03,05,7.90
2014,11,22,03,06,8.00
2014,11,22,03,07,8.00
2014,11,22,03,08,8.00
2014,11,22,03,09,8.00
2014,11,22,03,10,8.10
2014,11,22,03,11,8.10
2014,11,22,03,12,8.10
2014,11,22,03,13,8.10
2014,11,22,03,14,8.00
2014,11,22,03,15,8.00
2014,11,22,03,16,8.00
2014,11,22,03,17,7.90
2014,11,22,03,18,7.90
2014,11,22,03,19,7.90
2014,11,22,03,20,7.80
2014,11,22,03,21,7.80
2014,11,22,03,22,7.80
2014,11,22,03,23,7.70
2014,11,22,03,24,7.70
2014,11,22,03,25,7.60
2014,11,22,03,26,7.60
2014,11,22,03,27,7.50
2014,11,22,03,28,7.50
2014,11,22,03,29,7.40
2014,11,22,03,30,7.40
2014,11,22,03,31,7.40
2014,11,22,03,32,7.30
2014,11,22,03,33,7.30
2014,11,22,03,34,7.30
2014,11,22,03,35,7.30
2014,11,22,03,36,7.30
2014,11,22,03,37,7.20
2014,11,22,03,38,7.20
2014,11,22,03,39,7.20
2014,11,22,03,40,7.10
2014,11,22,03,41,7.10
2014,11,22,03,42,7.10
2014,11,22,03,43,7.10
2014,11,22,03,44,7.00
2014,11,22,03,45,7.00
2014,11,22,03,46,6.90
2014,11,22,03,47,6.90
2014,11,22,03,48,6.90
2014,11,22,03,49,6.80
2014,11,22,03,50,6.80
2014,11,22,03,51,6.80
2014,11,22,03,52,6.80
2014,11,22,03,53,6.80
2014,11,22,03,54,6.80
2014,11,22,03,55,6.80
2014,11,22,03,56,6.80
2014,11,22,03,57,6.70
2014,11,22,03,58,6.70
2014,11,22,03,59,6.70
2014,11,22,04,00,6.70
2014,11,22,04,01,6.70
2014,11,22,04,02,6.70
2014,11,22,04,03,6.70
2014,11,22,04,04,6.70
2014,11,22,04,05,6.70
2014,11,22,04,06,6.60
2014,11,22,04,07,6.60
2014,11,22,04,08,6.60
2014,11,22,04,09,6.60
2014,11,22,04,10,6.60
2014,11,22,04,11,6.60
2014,11,22,04,12,6.50
2014,11,22,04,13,6.50
2014,11,22,04,14,6.50
2014,11,22,04,15,6.50
2014,11,22,04,16,6.50
2014,11,22,04,17,6.50
2014,11,22,04,18,6.50
2014,11,22,04,19,6.50
2014,11,22,04,20,6.50
2014,11,22,04,21,6.40
2014,11,22,04,22,6.50
2014,11,22,04,23,6.50
2014,11,22,04,24,6.50
2014,11,22,04,25,6.50
2014,11,22,04,26,6.50
2014,11,22,04,27,6.50
2014,11,22,04,28,6.50
2014,11,22,04,29,6.50
2014,11,22,04,30,6.50
2014,11,22,04,31,6.50
2014,11,22,04,32,6.50
2014,11,22,04,33,6.50
2014,11,22,04,34,6.50
2014,11,22,04,35,6.50
2014,11,22,04,36,6.50
2014,11,22,04,37,6.50
2014,11,22,04,38,6.50
2014,11,22,04,39,6.60
2014,11,22,04,40,6.60
2014,11,22,04,41,6.50
2014,11,22,04,42,6.60
2014,11,22,04,43,6.60
2014,11,22,04,44,6.60
2014,11,22,04,45,6.60
2014,11,22,04,46,6.60
2014,11,22,04,47,6.60
2014,11,22,04,48,6.60
2014,11,22,04,49,6.60
2014,11,22,04,50,6.50
2014,11,22,04,51,6.50
2014,11,22,04,52,6.60
2014,11,22,04,53,6.60
2014,11,22,04,54,6.50
2014,11,22,04,55,6.60
2014,11,22,04,56,6.60
2014,11,22,04,57,6.60
2014,11,22,04,58,6.60
2014,11,22,04,59,6.60
2014,11,22,05,00,6.60
2014,11,22,05,01,6.60
2014,11,22,05,02,6.60
2014,11,22,05,03,6.60
2014,11,22,05,04,6.70
2014,11,22,05,05,6.70
2014,11,22,05,06,6.70
2014,11,22,05,07,6.70
2014,11,22,05,08,6.70
2014,11,22,05,09,6.70
2014,11,22,05,10,6.70
2014,11,22,05,11,6.70
2014,11,22,05,12,6.80
2014,11,22,05,13,6.80
2014,11,22,05,14,6.80
2014,11,22,05,15,6.80
2014,11,22,05,16,6.80
2014,11,22,05,17,6.80
2014,11,22,05,18,6.80
2014,11,22,05,19,6.80
2014,11,22,05,20,6.80
2014,11,22,05,21,6.80
2014,11,22,05,22,6.80
2014,11,22,05,23,6.80
2014,11,22,05,24,6.80
2014,11,22,05,25,6.80
2014,11,22,05,26,6.80
2014,11,22,05,27,6.80
2014,11,22,05,28,6.80
2014,11,22,05,29,6.80
2014,11,22,05,30,6.80
2014,11,22,05,31,6.80
2014,11,22,05,32,6.80
2014,11,22,05,33,6.80
2014,11,22,05,34,6.80
2014,11,22,05,35,6.80
2014,11,22,05,36,6.80
2014,11,22,05,37,6.80
2014,11,22,05,38,6.80
2014,11,22,05,39,6.80
2014,11,22,05,40,6.80
2014,11,22,05,41,6.80
2014,11,22,05,42,6.80
2014,11,22,05,43,6.80
2014,11,22,05,44,6.80
2014,11,22,05,45,6.80
2014,11,22,05,46,6.80
2014,11,22,05,47,6.80
2014,11,22,08,19,6.80
2014,11,22,08,20,6.80
2014,11,22,08,21,6.80
2014,11,22,08,22,6.70
2014,11,22,08,23,6.70
2014,11,22,08,24,6.70
2014,11,22,08,25,6.70
2014,11,22,08,26,6.70
2014,11,22,08,27,6.70
2014,11,22,08,28,6.80
2014,11,22,08,29,6.80
2014,11,22,08,30,6.80
2014,11,22,08,31,6.80
2014,11,22,08,32,6.80
2014,11,22,08,33,6.70
2014,11,22,08,34,6.70
2014,11,22,08,35,6.70
2014,11,22,08,36,6.70
2014,11,22,08,37,6.70
2014,11,22,08,38,6.60
2014,11,22,08,39,6.60
2014,11,22,08,40,6.60
2014,11,22,08,41,6.60
2014,11,22,08,42,6.70
2014,11,22,08,43,6.70
2014,11,22,08,44,6.70
2014,11,22,08,45,6.70
2014,11,22,08,46,6.70
2014,11,22,08,47,6.70
2014,11,22,08,48,6.70
2014,11,22,08,49,6.70
2014,11,22,08,50,6.80
2014,11,22,08,51,6.80
2014,11,22,08,52,6.80
2014,11,22,08,53,6.80
2014,11,22,08,54,6.80
2014,11,22,08,55,6.80
2014,11,22,08,56,6.80
2014,11,22,08,57,6.80
2014,11,22,08,58,6.90
2014,11,22,08,59,6.90
2014,11,22,09,00,6.90
2014,11,22,09,01,6.90
2014,11,22,09,02,6.90
2014,11,22,09,03,6.90
2014,11,22,09,04,6.90
2014,11,22,09,05,6.90
2014,11,22,09,06,6.90
2014,11,22,09,07,6.90
2014,11,22,09,08,6.90
2014,11,22,09,09,7.00
2014,11,22,09,10,7.00
2014,11,22,09,11,7.00
2014,11,22,09,12,7.00
2014,11,22,09,13,7.00
2014,11,22,09,14,7.00
2014,11,22,09,15,7.10
2014,11,22,09,16,7.10
2014,11,22,09,17,7.10
2014,11,22,09,18,7.10
2014,11,22,09,19,7.10
2014,11,22,09,20,7.10
2014,11,22,09,21,7.20
2014,11,22,09,22,7.20
2014,11,22,09,23,7.20
2014,11,22,09,24,7.20
2014,11,22,09,25,7.20
2014,11,22,09,26,7.20
2014,11,22,09,27,7.20
2014,11,22,09,28,7.20
2014,11,22,09,29,7.30
2014,11,22,09,30,7.30
2014,11,22,09,31,7.30
2014,11,22,09,32,7.30
2014,11,22,09,33,7.30
2014,11,22,09,34,7.30
2014,11,22,09,35,7.30
2014,11,22,09,36,7.40
2014,11,22,09,37,7.40
2014,11,22,09,38,7.40
2014,11,22,09,39,7.40
2014,11,22,09,40,7.40
2014,11,22,09,41,7.40
2014,11,22,09,42,7.40
2014,11,22,09,43,7.40
2014,11,22,09,44,7.50
2014,11,22,09,45,7.50
2014,11,22,09,46,7.50
2014,11,22,09,47,7.50
2014,11,22,09,48,7.50
2014,11,22,09,49,7.50
2014,11,22,09,50,7.60
2014,11,22,09,51,7.60
2014,11,22,09,52,7.60
2014,11,22,09,53,7.60
2014,11,22,09,54,7.60
2014,11,22,09,55,7.60
2014,11,22,09,56,7.70
2014,11,22,09,57,7.70
2014,11,22,09,58,7.70
2014,11,22,09,59,7.70
2014,11,22,10,00,7.70
2014,11,22,10,01,7.70
2014,11,22,10,02,7.70
2014,11,22,10,03,7.70
2014,11,22,10,04,7.70
2014,11,22,10,05,7.80
2014,11,22,10,06,7.80
2014,11,22,10,07,7.80
2014,11,22,10,08,7.80
2014,11,22,10,09,7.80
2014,11,22,10,10,7.80
2014,11,22,10,11,7.80
2014,11,22,10,12,7.90
2014,11,22,10,13,7.90
2014,11,22,10,14,7.90
2014,11,22,10,15,7.90
2014,11,22,10,16,7.90
2014,11,22,10,17,7.90
2014,11,22,10,18,7.90
2014,11,22,10,19,8.00
2014,11,22,10,20,8.00
2014,11,22,10,21,8.00
2014,11,22,10,22,8.00
2014,11,22,10,23,8.00
2014,11,22,10,24,8.00
2014,11,22,10,25,8.00
2014,11,22,10,26,8.00
2014,11,22,10,27,8.00
2014,11,22,10,28,8.00
2014,11,22,10,29,8.00
2014,11,22,10,30,8.00
2014,11,22,10,31,8.00
2014,11,22,10,32,8.00
2014,11,22,10,33,8.00
2014,11,22,10,34,8.00
2014,11,22,10,35,8.00
2014,11,22,10,36,8.00
2014,11,22,10,37,8.10
2014,11,22,10,38,8.10
2014,11,22,10,39,8.10
2014,11,22,10,40,8.10
2014,11,22,10,41,8.10
2014,11,22,10,42,8.10
2014,11,22,10,43,8.10
2014,11,22,10,44,8.10
2014,11,22,10,45,8.10
2014,11,22,10,46,8.10
2014,11,22,10,47,8.10
2014,11,22,10,48,8.10
2014,11,22,10,49,8.10
2014,11,22,10,50,8.10
2014,11,22,10,51,8.10
2014,11,22,10,52,8.10
2014,11,22,10,53,8.10
2014,11,22,10,54,8.10
2014,11,22,10,55,8.10
2014,11,22,10,56,8.10
2014,11,22,10,57,8.20
2014,11,22,10,58,8.20
2014,11,22,10,59,8.20
2014,11,22,11,00,8.10
2014,11,22,11,01,8.20
2014,11,22,11,02,8.20
2014,11,22,11,03,8.20
2014,11,22,11,04,8.20
2014,11,22,11,05,8.20
2014,11,22,11,06,8.10
2014,11,22,11,07,8.10
2014,11,22,11,08,8.10
2014,11,22,11,09,8.10
2014,11,22,11,10,8.20
2014,11,22,11,11,8.20
2014,11,22,11,12,8.20
2014,11,22,11,13,8.30
2014,11,22,11,14,8.30
2014,11,22,11,15,8.40
2014,11,22,11,16,8.40
2014,11,22,11,17,8.50
2014,11,22,11,18,8.50
2014,11,22,11,19,8.60
2014,11,22,11,20,8.70
2014,11,22,11,21,8.70
2014,11,22,11,22,8.70
2014,11,22,11,23,8.80
2014,11,22,11,24,8.80
2014,11,22,11,25,8.80
2014,11,22,11,26,8.80
2014,11,22,11,27,8.80
2014,11,22,11,28,8.80
2014,11,22,11,29,8.90
2014,11,22,11,30,8.90
2014,11,22,11,31,9.00
2014,11,22,11,32,9.00
2014,11,22,11,33,9.10
2014,11,22,11,34,9.10
2014,11,22,11,35,9.20
2014,11,22,11,36,9.20
2014,11,22,11,37,9.20
2014,11,22,11,38,9.30
2014,11,22,11,39,9.30
2014,11,22,11,40,9.40
2014,11,22,11,41,9.40
2014,11,22,11,42,9.50
2014,11,22,11,43,9.60
2014,11,22,11,44,9.60
2014,11,22,11,45,9.70
2014,11,22,11,46,9.70
2014,11,22,11,47,9.70
2014,11,22,11,48,9.70
2014,11,22,11,49,9.70
2014,11,22,11,50,9.70
2014,11,22,11,51,9.70
2014,11,22,11,52,9.80
2014,11,22,11,53,9.80
2014,11,22,11,54,9.80
2014,11,22,11,55,9.80
2014,11,22,11,56,9.80
2014,11,22,11,57,9.90
2014,11,22,11,58,9.90
2014,11,22,11,59,10.00
2014,11,22,12,00,10.00
2014,11,22,12,01,10.00
2014,11,22,12,02,9.90
2014,11,22,12,03,9.90
2014,11,22,12,04,9.90
2014,11,22,12,05,9.90
2014,11,22,12,06,9.90
2014,11,22,12,07,9.90
2014,11,22,12,08,9.90
2014,11,22,12,09,9.90
2014,11,22,12,10,9.90
2014,11,22,12,11,10.00
2014,11,22,12,12,10.00
2014,11,22,12,13,10.10
2014,11,22,12,14,10.10
2014,11,22,12,15,10.10
2014,11,22,12,16,10.10
2014,11,22,12,17,10.10
2014,11,22,12,18,10.10
2014,11,22,12,19,10.10
2014,11,22,12,20,10.10
2014,11,22,12,21,10.20
2014,11,22,12,22,10.20
2014,11,22,12,23,10.20
2014,11,22,12,24,10.20
2014,11,22,12,25,10.20
2014,11,22,12,26,10.30
2014,11,22,12,27,10.30
2014,11,22,12,28,10.30
2014,11,22,12,29,10.30
2014,11,22,12,30,10.30
2014,11,22,12,31,10.40
2014,11,22,12,32,10.40
2014,11,22,12,33,10.40
2014,11,22,12,34,10.40
2014,11,22,12,35,10.40
2014,11,22,12,36,10.40
2014,11,22,12,37,10.40
2014,11,22,12,38,10.50
2014,11,22,12,39,10.60
2014,11,22,12,40,10.60
2014,11,22,12,41,10.60
2014,11,22,12,42,10.70
2014,11,22,12,43,10.80
2014,11,22,12,44,10.80
2014,11,22,12,45,10.80
2014,11,22,12,46,10.80
2014,11,22,12,47,10.80
2014,11,22,12,48,10.80
2014,11,22,12,49,10.80
2014,11,22,12,50,10.80
2014,11,22,12,51,10.80
2014,11,22,12,52,10.80
2014,11,22,12,53,10.80
2014,11,22,12,54,10.90
2014,11,22,12,55,10.90
2014,11,22,12,56,10.90
2014,11,22,12,57,11.00
2014,11,22,12,58,11.00
2014,11,22,12,59,11.00
2014,11,22,13,00,11.00
2014,11,22,13,01,11.10
2014,11,22,13,02,11.10
2014,11,22,13,03,11.10
2014,11,22,13,04,11.10
2014,11,22,13,05,11.10
2014,11,22,13,06,11.20
2014,11,22,13,07,11.30
2014,11,22,13,08,11.30
2014,11,22,13,09,11.30
2014,11,22,13,10,11.40
2014,11,22,13,11,11.40
2014,11,22,13,12,11.40
2014,11,22,13,13,11.50
2014,11,22,13,14,11.50
2014,11,22,13,15,11.60
2014,11,22,13,16,11.60
2014,11,22,13,17,11.70
2014,11,22,13,18,11.80
2014,11,22,13,19,11.80
2014,11,22,13,20,11.80
2014,11,22,13,21,11.80
2014,11,22,13,22,11.90
2014,11,22,13,23,11.90
2014,11,22,13,24,11.90
2014,11,22,13,25,11.90
2014,11,22,13,26,11.80
2014,11,22,13,27,11.80
2014,11,22,13,28,11.90
2014,11,22,13,29,11.90
2014,11,22,13,30,11.90
2014,11,22,13,31,11.80
2014,11,22,13,32,11.80
2014,11,22,13,33,11.90
2014,11,22,13,34,11.90
2014,11,22,13,35,11.90
2014,11,22,13,36,11.90
2014,11,22,13,37,11.80
2014,11,22,13,38,11.70
2014,11,22,13,39,11.60
2014,11,22,13,40,11.60
2014,11,22,13,41,11.50
2014,11,22,13,42,11.40
2014,11,22,13,43,11.40
2014,11,22,13,44,11.40
2014,11,22,13,45,11.40
2014,11,22,13,46,11.40
2014,11,22,13,47,11.40
2014,11,22,13,48,11.40
2014,11,22,13,49,11.40
2014,11,22,13,50,11.40
2014,11,22,13,51,11.40
2014,11,22,13,52,11.30
2014,11,22,13,53,11.30
2014,11,22,13,54,11.20
2014,11,22,13,55,11.10
2014,11,22,13,56,11.00
2014,11,22,13,57,10.90
2014,11,22,13,58,10.90
2014,11,22,13,59,10.80
2014,11,22,14,00,10.70
2014,11,22,14,01,10.70
2014,11,22,14,02,10.70
2014,11,22,14,03,10.60
2014,11,22,14,04,10.60
2014,11,22,14,05,10.60
2014,11,22,14,06,10.50
2014,11,22,14,07,10.50
2014,11,22,14,08,10.50
2014,11,22,14,09,10.40
2014,11,22,14,10,10.40
2014,11,22,14,11,10.40
2014,11,22,14,12,10.40
2014,11,22,14,13,10.40
2014,11,22,14,14,10.40
2014,11,22,14,15,10.40
2014,11,22,14,16,10.40
2014,11,22,14,17,10.40
2014,11,22,14,18,10.50
2014,11,22,14,19,10.50
2014,11,22,14,20,10.60
2014,11,22,14,21,10.60
2014,11,22,14,22,10.70
2014,11,22,14,23,10.70
2014,11,22,14,24,10.70
2014,11,22,14,25,10.80
2014,11,22,14,26,10.80
2014,11,22,14,27,10.80
2014,11,22,14,28,10.80
2014,11,22,14,29,10.90
2014,11,22,14,30,10.90
2014,11,22,14,31,11.00
2014,11,22,14,32,11.00
2014,11,22,14,33,11.10
2014,11,22,14,34,11.10
2014,11,22,14,35,11.10
2014,11,22,14,36,11.10
2014,11,22,14,37,11.10
2014,11,22,14,38,11.20
2014,11,22,14,39,11.20
2014,11,22,14,40,11.20
2014,11,22,14,41,11.20
2014,11,22,14,42,11.20
2014,11,22,14,43,11.20
2014,11,22,14,44,11.20
2014,11,22,14,45,11.20
2014,11,22,14,46,11.20
2014,11,22,14,47,11.20
2014,11,22,14,48,11.20
2014,11,22,14,49,11.20
2014,11,22,14,50,11.20
2014,11,22,14,51,11.20
2014,11,22,14,52,11.20
2014,11,22,14,53,11.20
2014,11,22,14,54,11.20
2014,11,22,14,55,11.20
2014,11,22,14,56,11.20
2014,11,22,14,57,11.20
2014,11,22,14,58,11.20
2014,11,22,14,59,11.20
2014,11,22,15,00,11.20
2014,11,22,15,01,11.30
2014,11,22,15,02,11.30
2014,11,22,15,03,11.30
2014,11,22,15,04,11.30
2014,11,22,15,05,11.30
2014,11,22,15,06,11.30
2014,11,22,15,07,11.30
2014,11,22,15,08,11.30
2014,11,22,15,09,11.30
2014,11,22,15,10,11.20
2014,11,22,15,11,11.20
2014,11,22,15,12,11.20
2014,11,22,15,13,11.20
2014,11,22,15,14,11.20
2014,11,22,15,15,11.20
2014,11,22,15,16,11.20
2014,11,22,15,17,11.10
2014,11,22,15,18,11.10
2014,11,22,15,19,11.00
2014,11,22,15,20,10.90
2014,11,22,15,21,10.90
2014,11,22,15,22,10.80
2014,11,22,15,23,10.70
2014,11,22,15,24,10.70
2014,11,22,15,25,10.60
2014,11,22,15,26,10.60
2014,11,22,15,27,10.60
2014,11,22,15,28,10.50
2014,11,22,15,29,10.50
2014,11,22,15,30,10.50
2014,11,22,15,31,10.50
2014,11,22,15,32,10.50
2014,11,22,15,33,10.50
2014,11,22,15,34,10.50
2014,11,22,15,35,10.50
2014,11,22,15,36,10.50
2014,11,22,15,37,10.50
2014,11,22,15,38,10.50
2014,11,22,15,39,10.60
2014,11,22,15,40,10.60
2014,11,22,15,41,10.60
2014,11,22,15,42,10.60
2014,11,22,15,43,10.60
2014,11,22,15,44,10.50
2014,11,22,15,45,10.50
2014,11,22,15,46,10.50
2014,11,22,15,47,10.50
2014,11,22,15,48,10.50
2014,11,22,15,49,10.50
2014,11,22,15,50,10.50
2014,11,22,15,51,10.40
2014,11,22,15,52,10.40
2014,11,22,15,53,10.40
2014,11,22,15,54,10.30
2014,11,22,15,55,10.30
2014,11,22,15,56,10.30
2014,11,22,15,57,10.20
2014,11,22,15,58,10.20
2014,11,22,15,59,10.20
2014,11,22,16,00,10.10
2014,11,22,16,01,10.10
2014,11,22,16,02,10.10
2014,11,22,16,03,10.00
2014,11,22,16,04,10.00
2014,11,22,16,05,9.90
2014,11,22,16,06,9.90
2014,11,22,16,07,9.90
2014,11,22,16,08,9.90
2014,11,22,16,09,9.90
2014,11,22,16,10,9.90
2014,11,22,16,11,9.80
2014,11,22,16,12,9.80
2014,11,22,16,13,9.80
2014,11,22,16,14,9.80
2014,11,22,16,15,9.80
2014,11,22,16,16,9.70
2014,11,22,16,17,9.70
2014,11,22,16,18,9.70
2014,11,22,16,19,9.70
2014,11,22,16,20,9.70
2014,11,22,16,21,9.70
2014,11,22,16,22,9.60
2014,11,22,16,23,9.60
2014,11,22,16,24,9.60
2014,11,22,16,25,9.60
2014,11,22,16,26,9.60
2014,11,22,16,27,9.60
2014,11,22,16,28,9.60
2014,11,22,16,29,9.50
2014,11,22,16,30,9.50
2014,11,22,16,31,9.50
2014,11,22,16,32,9.50
2014,11,22,16,33,9.50
2014,11,22,16,34,9.50
2014,11,22,16,35,9.50
2014,11,22,16,36,9.40
2014,11,22,16,37,9.40
2014,11,22,16,38,9.40
2014,11,22,16,39,9.40
2014,11,22,16,40,9.40
2014,11,22,16,41,9.40
2014,11,22,16,42,9.40
2014,11,22,16,43,9.40
2014,11,22,16,44,9.40
2014,11,22,16,45,9.40
2014,11,22,16,46,9.40
2014,11,22,16,47,9.40
2014,11,22,16,48,9.40
2014,11,22,16,49,9.30
2014,11,22,16,50,9.30
2014,11,22,16,51,9.30
2014,11,22,16,52,9.30
2014,11,22,16,53,9.30
2014,11,22,16,54,9.30
2014,11,22,16,55,9.30
2014,11,22,16,56,9.30
2014,11,22,16,57,9.30
2014,11,22,16,58,9.30
2014,11,22,16,59,9.30
2014,11,22,17,00,9.30
2014,11,22,17,01,9.30
2014,11,22,17,02,9.30
2014,11,22,17,03,9.30
2014,11,22,17,04,9.30
2014,11,22,17,05,9.30
2014,11,22,17,06,9.30
2014,11,22,17,07,9.20
2014,11,22,17,08,9.20
2014,11,22,17,09,9.20
2014,11,22,17,10,9.20
2014,11,22,17,11,9.20
2014,11,22,17,12,9.20
2014,11,22,17,13,9.20
2014,11,22,17,14,9.20
2014,11,22,17,15,9.20
2014,11,22,17,16,9.20
2014,11,22,17,17,9.30
2014,11,22,17,18,9.30
2014,11,22,17,19,9.30
2014,11,22,17,20,9.30
2014,11,22,17,21,9.30
2014,11,22,17,22,9.30
2014,11,22,17,23,9.30
2014,11,22,17,24,9.30
2014,11,22,17,25,9.20
2014,11,22,17,26,9.20
2014,11,22,17,27,9.20
2014,11,22,17,28,9.20
2014,11,22,17,29,9.20
2014,11,22,17,30,9.10
2014,11,22,17,31,9.10
2014,11,22,17,32,9.10
2014,11,22,17,33,9.00
2014,11,22,17,34,9.00
2014,11,22,17,35,9.00
2014,11,22,17,36,9.00
2014,11,22,17,37,9.00
2014,11,22,17,38,9.00
2014,11,22,17,39,9.00
2014,11,22,17,40,9.10
2014,11,22,17,41,9.10
2014,11,22,17,42,9.10
2014,11,22,17,43,9.10
2014,11,22,17,44,9.00
2014,11,22,17,45,9.00
2014,11,22,17,46,9.00
2014,11,22,17,47,9.00
2014,11,22,17,48,9.00
2014,11,22,17,49,8.90
2014,11,22,17,50,8.90
2014,11,22,17,51,8.90
2014,11,22,17,52,8.90
2014,11,22,17,53,8.90
2014,11,22,17,54,8.90
2014,11,22,17,55,8.90
2014,11,22,17,56,8.90
2014,11,22,17,57,8.90
2014,11,22,17,58,8.90
2014,11,22,17,59,8.90
2014,11,22,18,00,8.90
2014,11,22,18,01,8.90
2014,11,22,18,02,8.90
2014,11,22,18,03,8.90
2014,11,22,18,04,8.90
2014,11,22,18,05,9.00
2014,11,22,18,06,9.00
2014,11,22,18,07,9.00
2014,11,22,18,08,9.00
2014,11,22,18,09,9.10
2014,11,22,18,10,9.10
2014,11,22,18,11,9.10
2014,11,22,18,12,9.10
2014,11,22,18,13,9.10
2014,11,22,18,14,9.10
2014,11,22,18,15,9.10
2014,11,22,18,16,9.10
2014,11,22,18,17,9.10
2014,11,22,18,18,9.10
2014,11,22,18,19,9.10
2014,11,22,18,20,9.10
2014,11,22,18,21,9.10
2014,11,22,18,22,9.10
2014,11,22,18,23,9.00
2014,11,22,18,24,9.00
2014,11,22,18,25,9.00
2014,11,22,18,26,9.00
2014,11,22,18,27,9.00
2014,11,22,18,28,8.90
2014,11,22,18,29,8.90
2014,11,22,18,30,8.90
2014,11,22,18,31,8.80
2014,11,22,18,32,8.80
2014,11,22,18,33,8.80
2014,11,22,18,34,8.80
2014,11,22,18,35,8.70
2014,11,22,18,36,8.70
2014,11,22,18,37,8.70
2014,11,22,18,38,8.70
2014,11,22,18,39,8.60
2014,11,22,18,40,8.60
2014,11,22,18,41,8.60
2014,11,22,18,42,8.50
2014,11,22,18,43,8.50
2014,11,22,18,44,8.40
2014,11,22,18,45,8.30
2014,11,22,18,46,8.30
2014,11,22,18,47,8.30
2014,11,22,18,48,8.20
2014,11,22,18,49,8.20
2014,11,22,18,50,8.20
2014,11,22,18,51,8.20
2014,11,22,18,52,8.20
2014,11,22,18,53,8.20
2014,11,22,18,54,8.20
2014,11,22,18,55,8.10
2014,11,22,18,56,8.10
2014,11,22,18,57,8.10
2014,11,22,18,58,8.10
2014,11,22,18,59,8.10
2014,11,22,19,00,8.00
2014,11,22,19,01,8.00
2014,11,22,19,02,8.00
2014,11,22,19,03,8.00
2014,11,22,19,04,8.00
2014,11,22,19,05,8.00
2014,11,22,19,06,8.00
2014,11,22,19,07,8.10
2014,11,22,19,08,8.10
2014,11,22,19,09,8.10
2014,11,22,19,10,8.00
2014,11,22,19,11,8.00
2014,11,22,19,12,8.00
2014,11,22,19,13,8.00
2014,11,22,19,14,8.00
2014,11,22,19,15,8.00
2014,11,22,19,16,8.00
2014,11,22,19,17,8.00
2014,11,22,19,18,7.90
2014,11,22,19,19,8.00
2014,11,22,19,20,8.00
2014,11,22,19,21,8.00
2014,11,22,19,22,8.00
2014,11,22,19,23,8.00
2014,11,22,19,24,8.00
2014,11,22,19,25,8.00
2014,11,22,19,26,8.00
2014,11,22,19,27,8.00
2014,11,22,19,28,8.00
2014,11,22,19,29,8.00
2014,11,22,19,30,8.00
2014,11,22,19,31,8.00
2014,11,22,19,32,8.00
2014,11,22,19,33,7.90
2014,11,22,19,34,7.90
2014,11,22,19,35,7.90
2014,11,22,19,36,7.90
2014,11,22,19,37,7.90
2014,11,22,19,38,7.90
2014,11,22,19,39,7.90
2014,11,22,19,40,7.90
2014,11,22,19,41,7.90
2014,11,22,19,42,7.90
2014,11,22,19,43,7.90
2014,11,22,19,44,7.90
2014,11,22,19,45,7.90
2014,11,22,19,46,7.90
2014,11,22,19,47,7.90
2014,11,22,19,48,7.90
2014,11,22,19,49,7.90
2014,11,22,19,50,7.90
2014,11,22,19,51,7.90
2014,11,22,19,52,7.80
2014,11,22,19,53,7.80
2014,11,22,19,54,7.80
2014,11,22,19,55,7.80
2014,11,22,19,56,7.80
2014,11,22,19,57,7.80
2014,11,22,19,58,7.80
2014,11,22,19,59,7.80
2014,11,22,20,00,7.80
2014,11,22,20,01,7.80
2014,11,22,20,02,7.80
2014,11,22,20,03,7.80
2014,11,22,20,04,7.80
2014,11,22,20,05,7.70
2014,11,22,20,06,7.70
2014,11,22,20,07,7.70
2014,11,22,20,08,7.70
2014,11,22,20,09,7.70
2014,11,22,20,10,7.70
2014,11,22,20,11,7.70
2014,11,22,20,12,7.70
2014,11,22,20,13,7.70
2014,11,22,20,14,7.80
2014,11,22,20,15,7.80
2014,11,22,20,16,7.80
2014,11,22,20,17,7.80
2014,11,22,20,18,7.80
2014,11,22,20,19,7.80
2014,11,22,20,20,7.80
2014,11,22,20,21,7.80
2014,11,22,20,22,7.80
2014,11,22,20,23,7.80
2014,11,22,20,24,7.90
2014,11,22,20,25,7.90
2014,11,22,20,26,7.90